W5GFI Weather Reports


time (UTC)temp
F
wind
direction
speed
knots
gust
knots
rain 1hr
in
rain 24hr
in
rain mn
in
humidity
%
barometer
mb
20260507103042 44 26 0.0 0.0 0.00 0.00 0.00 91 1019.1
20260507101526 44 26 0.0 0.0 0.00 0.00 0.00 91 1018.7
20260507100009 44 26 0.0 0.0 0.00 0.00 0.00 91 1018.7
20260507094547 44 25 0.0 0.0 0.00 0.00 0.00 92 1018.6
20260507093040 44 26 0.0 0.9 0.00 0.00 0.00 92 1018.8
20260507091511 43 26 0.0 0.0 0.00 0.00 0.00 92 1018.6
20260507090048 43 25 0.0 0.0 0.00 0.00 0.00 91 1019.0
20260507084530 43 26 0.0 0.0 0.00 0.00 0.00 91 1019.1
20260507083002 43 26 0.0 0.0 0.00 0.00 0.00 90 1018.9
20260507081540 43 26 0.0 0.9 0.00 0.00 0.00 90 1019.2
20260507080023 43 26 0.0 0.0 0.00 0.00 0.00 89 1019.3
20260507074506 43 26 0.0 0.9 0.00 0.00 0.00 88 1019.4
20260507073044 44 26 0.0 0.0 0.00 0.00 0.00 87 1019.3
20260507071529 44 26 0.0 0.0 0.00 0.00 0.00 87 1019.4
20260507070103 45 26 0.0 0.0 0.00 0.00 0.00 86 1019.3
20260507064537 45 26 0.0 0.0 0.00 0.00 0.00 86 1019.5
20260507063015 45 25 0.0 0.0 0.00 0.00 0.00 85 1019.5
20260507061553 46 26 0.0 0.0 0.00 0.00 0.00 83 1019.1
20260507060021 46 25 0.0 0.0 0.00 0.00 0.00 82 1019.1
20260507054605 47 25 0.0 0.0 0.00 0.00 0.00 82 1019.4
20260507053026 47 26 0.0 0.9 0.00 0.00 0.00 81 1019.3
20260507051601 48 26 0.0 0.0 0.00 0.00 0.00 81 1019.2
20260507050039 48 26 0.0 0.0 0.00 0.00 0.00 79 1019.3
20260507044509 48 26 0.0 0.0 0.00 0.00 0.00 78 1019.4
20260507043047 49 26 0.0 0.0 0.00 0.00 0.00 77 1019.4
20260507041535 49 26 0.0 0.0 0.00 0.00 0.00 75 1019.2
20260507040002 49 26 0.0 0.0 0.00 0.00 0.00 75 1019.1
20260507034541 50 26 0.0 0.9 0.00 0.00 0.00 76 1018.9
20260507033029 50 26 0.0 0.0 0.00 0.00 0.00 75 1018.7
20260507031508 51 26 0.0 0.0 0.00 0.00 0.00 72 1018.7
20260507030045 52 26 0.0 0.0 0.00 0.00 0.00 72 1018.6
20260507024518 52 26 0.0 0.0 0.00 0.00 0.00 71 1018.5
20260507023002 53 26 0.0 0.0 0.00 0.00 0.00 68 1018.4
20260507021540 54 26 0.0 0.0 0.00 0.00 0.00 66 1018.4
20260507020027 55 26 0.0 0.0 0.00 0.00 0.00 63 1018.2
20260507014516 56 26 0.0 0.9 0.00 0.00 0.00 58 1017.9
20260507013103 57 25 0.0 0.9 0.00 0.00 0.00 57 1017.8
20260507011536 58 343 0.0 1.7 0.00 0.00 0.00 56 1017.7
20260507010002 59 27 0.9 3.5 0.00 0.00 0.00 52 1017.6
20260507004539 60 318 0.0 6.1 0.00 0.00 0.00 53 1017.5
20260507003022 62 21 0.9 2.6 0.00 0.00 0.00 51 1017.4
20260507001621 63 76 0.0 3.5 0.00 0.01 0.00 48 1017.2
20260507000032 64 122 0.9 6.1 0.00 0.01 0.00 44 1017.1
20260506234514 65 211 0.0 7.0 0.00 0.01 0.00 43 1017.1
20260506233057 65 65 2.6 8.7 0.00 0.01 0.00 41 1016.8
20260506231525 65 75 0.9 4.3 0.00 0.03 0.00 45 1016.8
20260506230009 67 58 4.3 9.6 0.00 0.03 0.00 42 1016.5
20260506224547 67 354 2.6 11.3 0.00 0.03 0.00 43 1016.5
20260506223024 66 314 4.3 9.6 0.00 0.03 0.00 42 1016.4
20260506221507 67 85 2.6 10.4 0.00 0.03 0.00 41 1016.2
20260506220043 66 27 1.7 11.3 0.00 0.03 0.00 43 1016.3
20260506214526 66 58 1.7 11.3 0.00 0.03 0.00 43 1016.4
20260506213012 66 71 1.7 7.8 0.00 0.03 0.00 45 1016.4
20260506211547 67 345 1.7 8.7 0.00 0.03 0.00 43 1016.7
20260506210036 65 336 3.5 8.7 0.00 0.03 0.00 46 1016.7
20260506204504 66 48 2.6 12.2 0.00 0.03 0.00 46 1016.8
20260506203044 65 291 3.5 9.6 0.00 0.03 0.00 47 1016.9
20260506201521 66 290 2.6 8.7 0.00 0.03 0.00 45 1017.2
20260506200143 66 12 4.3 11.3 0.00 0.03 0.00 47 1017.3
20260506194531 66 332 0.9 7.0 0.00 0.03 0.00 47 1017.4
20260506193002 65 10 5.2 8.7 0.00 0.03 0.00 45 1017.6
20260506191540 64 348 2.6 7.8 0.00 0.03 0.00 50 1017.5
20260506190012 65 313 2.6 11.3 0.00 0.03 0.00 49 1017.8
20260506184600 64 327 1.7 7.0 0.00 0.03 0.00 53 1018.2
20260506183041 63 62 1.7 8.7 0.00 0.03 0.00 48 1018.1
20260506181514 63 323 2.6 8.7 0.00 0.04 0.00 54 1018.3
20260506180058 62 60 0.9 8.7 0.00 0.04 0.00 54 1018.6
20260506174527 62 25 2.6 7.8 0.00 0.04 0.00 55 1019.2
20260506173124 61 354 3.5 7.0 0.00 0.04 0.00 57 1019.5
20260506171552 62 322 2.6 8.7 0.00 0.04 0.00 53 1019.5
20260506170024 62 62 0.9 4.3 0.00 0.04 0.00 55 1019.3
20260506164558 61 55 2.6 8.7 0.00 0.04 0.00 55 1019.4
20260506163036 60 323 1.7 7.8 0.00 0.04 0.00 59 1019.6
20260506161520 59 295 2.6 7.8 0.00 0.04 0.00 63 1018.9
20260506160057 58 43 3.5 9.6 0.00 0.04 0.00 62 1018.4
20260506154521 58 45 1.7 8.7 0.00 0.04 0.00 63 1017.9
20260506153004 57 97 0.9 7.8 0.00 0.04 0.00 66 1017.6
20260506151541 56 83 1.7 13.0 0.00 0.04 0.00 67 1017.9
20260506150011 55 85 3.5 10.4 0.00 0.04 0.00 66 1018.4
20260506144546 54 4 0.9 7.8 0.00 0.04 0.00 70 1017.7
20260506143030 53 12 0.9 5.2 0.00 0.04 0.00 72 1018.0
20260506141503 51 85 0.9 7.0 0.00 0.04 0.00 74 1017.8
20260506140044 51 156 1.7 9.6 0.00 0.04 0.00 74 1017.5
20260506134548 50 53 0.9 12.2 0.00 0.04 0.00 77 1017.5
20260506133058 50 35 1.7 7.8 0.00 0.04 0.00 78 1018.0
20260506131532 49 14 1.7 6.1 0.00 0.04 0.00 79 1018.2
20260506130015 49 16 1.7 7.0 0.00 0.04 0.00 80 1017.9
20260506124551 48 91 1.7 7.8 0.00 0.04 0.00 83 1017.7
20260506123022 48 354 1.7 7.0 0.00 0.04 0.00 85 1017.6
20260506121509 48 33 1.7 7.0 0.00 0.04 0.00 86 1017.5
20260506120043 47 359 0.9 4.3 0.00 0.04 0.00 86 1017.5
20260506114523 47 138 1.7 4.3 0.00 0.04 0.00 87 1017.7
20260506113103 47 80 0.9 5.2 0.00 0.04 0.00 87 1017.7
20260506111535 47 40 2.6 7.8 0.00 0.04 0.00 86 1017.4
20260506110014 47 312 0.9 5.2 0.00 0.04 0.00 86 1016.8
20260506104547 48 354 1.7 5.2 0.00 0.04 0.00 85 1016.8